• Processing (Info)

  • MPEC 2014-E79 : 2014 EK45

    The following Minor Planet Electronic Circular may be linked-to from your own Web pages, but must not otherwise be redistributed electronically.

    A form allowing access to any MPEC is at the bottom of this page.


    Read MPEC 2014-E78 Read MPEC 2014-E80


    M.P.E.C. 2014-E79                                Issued 2014 Mar. 13, 11:04 UT
    
         The Minor Planet Electronic Circulars contain information on unusual
             minor planets and routine data on comets.  They are published
       on behalf of Commission 20 of the International Astronomical Union by the
              Minor Planet Center, Smithsonian Astrophysical Observatory,
                              Cambridge, MA 02138, U.S.A.
    
                 Prepared using the Tamkin Foundation Computer Network
    
                                  MPC@CFA.HARVARD.EDU
                URL https://www.minorplanetcenter.net/    ISSN 1523-6714
    
                                       2014 EK45
    
    Observations:
         K14E45K* C2014 03 09.49313 13 30 08.500+02 29 22.31         19.9 iLEE079F51
         K14E45K  C2014 03 09.56628 13 30 05.218+02 30 22.74         19.9 iLEE079F51
         K14E45K  C2014 03 09.58024 13 30 04.594+02 30 34.34         19.9 iLEE079F51
         K14E45K KC2014 03 10.11095 13 29 42.54 +02 37 50.8          20.6 VuEE079958
         K14E45K KC2014 03 10.11976 13 29 42.14 +02 37 57.9          20.6 VuEE079958
         K14E45K KC2014 03 10.12858 13 29 41.78 +02 38 05.2          20.2 VuEE079958
         K14E45K KC2014 03 10.13742 13 29 41.34 +02 38 12.1          20.6 VuEE079958
         K14E45K KC2014 03 10.14550 13 29 40.99 +02 38 19.1          20.7 VuEE079958
         K14E45K |C2014 03 10.24890 13 29 36.91 +02 39 54.7          20.3 VuEE079807
         K14E45K |C2014 03 10.25316 13 29 36.70 +02 39 58.3          19.8 VuEE079807
         K14E45K |C2014 03 10.25725 13 29 36.50 +02 40 01.9          19.9 VuEE079807
         K14E45K  C2014 03 10.29443113 29 35.09 +02 40 22.9          19.5 RtEE079H01
         K14E45K  C2014 03 10.30016513 29 34.85 +02 40 27.7          19.9 RtEE079H01
         K14E45K  C2014 03 10.30883113 29 34.45 +02 40 35.0          19.8 RtEE079H01
         K14E45K  C2014 03 10.31563413 29 34.14 +02 40 40.5          19.8 RtEE079H01
         K14E45K  C2014 03 10.32270 13 29 33.86 +02 40 46.8          20.2 RoEE079926
         K14E45K  C2014 03 10.34190 13 29 32.99 +02 41 02.1          20.3 RoEE079926
         K14E45K  C2014 03 10.35593 13 29 32.35 +02 41 13.7          20.1 RoEE079926
         K14E45K bC2014 03 10.38990013 29 30.54 +02 41 41.9          20.0 VrEE079H21
         K14E45K bC2014 03 10.39571913 29 30.32 +02 41 46.3          20.1 VrEE079H21
         K14E45K bC2014 03 10.40104013 29 30.08 +02 41 49.9          19.8 VrEE079H21
         K14E45K KC2014 03 10.48347 13 29 26.47 +02 42 59.5          19.6 RoEE079291
         K14E45K KC2014 03 10.49152 13 29 26.11 +02 43 06.0          19.7 RoEE079291
         K14E45K KC2014 03 10.50052 13 29 25.69 +02 43 13.5          19.5 RoEE079291
         K14E45K |C2014 03 11.24416 13 28 53.64 +02 53 37.8          20.1 VuEE079807
         K14E45K |C2014 03 11.24822 13 28 53.47 +02 53 41.1          20.2 VuEE079807
         K14E45K |C2014 03 11.25245 13 28 53.28 +02 53 44.7          20.2 VuEE079807
         K14E45K KC2014 03 11.29968 13 28 51.35 +02 54 14.2          20.4 RoEE079291
         K14E45K KC2014 03 11.30401 13 28 51.15 +02 54 17.4          20.1 RoEE079291
         K14E45K KC2014 03 11.30835 13 28 50.96 +02 54 21.1          20.4 RoEE079291
         K14E45K KC2014 03 11.37655 13 28 47.55 +02 55 17.9          20.5 RqEE079H36
         K14E45K KC2014 03 11.38549 13 28 47.11 +02 55 23.7          20.2 RqEE079H36
         K14E45K KC2014 03 12.26974 13 28 07.40 +03 07 35.1          20.6 RoEE079291
         K14E45K KC2014 03 12.27373 13 28 07.25 +03 07 38.4          20.2 RoEE079291
         K14E45K KC2014 03 12.27772 13 28 07.05 +03 07 41.6          20.0 RoEE079291
         K14E45K  C2014 03 12.36707 13 28 02.66 +03 08 55.4          20.7 RoEE079926
         K14E45K  C2014 03 12.38339 13 28 01.84 +03 09 08.7          20.7 RoEE079926
         K14E45K  C2014 03 12.40135 13 28 00.94 +03 09 23.5          20.7 RoEE079926
         K14E45K KC2014 03 13.27945 13 27 19.90 +03 21 26.4          20.5 RoEE079291
         K14E45K KC2014 03 13.28577 13 27 19.59 +03 21 32.0          20.5 RoEE079291
    
    Observer details:
    291 LPL/Spacewatch II.  Observers R. A. Mastaler, T. H. Bressi.  1.8-m f/2.7
        reflector + CCD.
    807 Cerro Tololo.  Observers T. Linder, R. Holmes.  Measurers T. Linder,
        R. Holmes, K. Baker.  0.41-m f/11 Ritchey-Chretien + CCD.
    926 Tenagra II Observatory.  Observers M. Schwartz, P. R. Holvorcem.  0.81-m
        f/7 Ritchey-Chretien + CCD.
    958 Observatoire de Dax.  Observers P. Dupouy, J. B. de Vanssay.  Measurer
        P. Dupouy.  0.43-m f/2.7 reflector + CCD.
    F51 Pan-STARRS 1, Haleakala.  Observers N. Primak, A. Schultz, T. Goggia,
        M. Willman.  Measurer PS1 Science Consortium.  1.8-m Ritchey-Chretien
        + CCD.
    H01 Magdalena Ridge Observatory, Socorro.  Observer W. H. Ryan.  2.4-m f/8.9
        reflector + CCD.
    H21 Astronomical Research Observatory, Westfield.  Observer R. Holmes.
        Measurers S. Foglia, L. Buzzi, H. Devore, T. Linder, T. Lister,
        T. Vorobjov.  0.61-m f/4.0 astrograph + CCD.
    H36 Sandlot Observatory, Scranton.  Observer G. Hug.  0.56-m reflector + CCD.
    
    Orbital elements:
    2014 EK45                                                Earth MOID = 0.3401 AU
    Epoch 2013 Nov. 4.0 TT = JDT 2456600.5                  MPC
    M   0.93687              (2000.0)            P               Q
    n   0.21687458     Peri.  310.76302     -0.20413492     -0.97510424
    a   2.7436599      Node   150.67392     +0.94299200     -0.21962241
    e   0.5287155      Incl.   10.18501     +0.26285934     +0.03062228
    P   4.54           H   18.3           G   0.15           U   7
    Residuals in seconds of arc
    140309 F51  0.1+  0.1-    140310 H01  0.1-  0.1+    140311 291  0.1+  0.3-
    140309 F51  0.0   0.1-    140310 926  0.1-  0.2+    140311 291  0.4+  0.2-
    140309 F51  0.0   0.1-    140310 926  0.1+  0.4-    140311 H36  0.1+  1.1+
    140310 958  0.4-  0.8+    140310 926  0.1+  0.4-    140311 H36  0.1-  0.5-
    140310 958  0.4-  0.7+    140310 H21  0.6-  0.8+    140312 291  0.5-  0.1+
    140310 958  0.2+  0.7+    140310 H21  0.1+  0.4+    140312 291  0.1+  0.1+
    140310 958  0.5-  0.3+    140310 H21  0.1+  0.4-    140312 291  0.0   0.0
    140310 958  0.2-  0.6+    140310 291  0.0   0.0     140312 926  0.2+  0.0
    140310 807  0.2+  0.5-    140310 291  0.2+  0.1-    140312 926  0.1+  0.2-
    140310 807  0.0   0.4-    140310 291  0.1+  0.1-    140312 926  0.0   0.2-
    140310 807  0.2-  0.2-    140311 807  0.1-  0.1-    140313 291  0.2-  0.2-
    140310 H01  0.3-  0.0     140311 807  0.3+  0.2-    140313 291  0.0   0.1+
    140310 H01  0.0   0.1+    140311 807  0.5+  0.1-
    140310 H01  0.1-  0.2+    140311 291  0.1+  0.1+
    
    Ephemeris:
    2014 EK45                a,e,i = 2.74, 0.53, 10                  q = 1.2930
    Date    TT    R. A. (2000) Decl.     Delta      r     Elong.  Phase     V
    2014 02 11    13 34 07.0 -02 49 48   0.9688  1.6846   118.9    30.8    20.7
    ...
    2014 02 26    13 35 34.7 -00 04 21   0.9398  1.7780   134.2    23.5    20.5
    ...
    2014 03 06    13 32 19.5 +01 41 28   0.9359  1.8289   143.1    19.0    20.4
    ...
    2014 03 12    13 28 19.5 +03 03 56   0.9404  1.8674   149.8    15.5    20.4
    2014 03 13    13 27 32.9 +03 17 41   0.9419  1.8738   150.9    14.9    20.4
    2014 03 14    13 26 44.7 +03 31 22   0.9435  1.8802   152.0    14.4    20.4
    ...
    2014 03 20    13 21 25.5 +04 51 43   0.9579  1.9189   158.4    11.0    20.3
    ...
    2014 03 28    13 13 26.9 +06 29 45   0.9898  1.9706   164.9     7.6    20.3
    ...
    2014 04 12    12 58 36.3 +08 45 09   1.0913  2.0675   161.9     8.7    20.7
    
    A. U. Tomatic                (C) Copyright 2014 MPC           M.P.E.C. 2014-E79
    

    Read MPEC 2014-E78 Read MPEC 2014-E80


    MPEC number:

    Enter an MPEC number in one of the following forms:

    • 1997-B01 (the full form)
    • J97B01 (the packed version of the full form)
    • B01 (the abbreviated form)